Cloud_Cover
69 1 3 28 55 100 100 100 84 58 98 100 98 53 78 100 100 100 100 100 100 100 100 100 100 100 100 100 100 100 100 59 100 100 100 48 5 5 5 5 1 0 0
0 0 0 0 32 45 100 100 100 73 100 100 100 90 44 100 100 100 100 100 100 100 100 100 100 100 100 100 100 100 100 100 100 100 98 59 25 5 5 3 13 1 1
1 0 0 25 38 34 50 100 100 99 100 100 100 100 93 53 100 100 100 100 100 100 100 100 95 100 100 100 100 100 100 100 100 100 97 88 27 9 62 20 8 7 0
2 1 0 2 39 70 85 100 100 100 100 100 100 100 100 100 100 100 100 100 100 100 100 100 100 100 100 100 100 100 100 100 100 100 100 100 5 100 22 73 34 4 0
0 0 0 1 41 76 100 100 100 100 100 100 100 100 100 100 100 100 100 100 100 100 100 100 100 100 100 100 100 100 100 100 100 7 98 100 100 100 97 7 96 0 0
4 0 0 0 50 1 99 100 100 100 100 100 100 100 100 100 100 100 100 100 100 100 100 100 100 100 100 100 100 100 100 100 72 99 26 100 100 100 100 71 30 4 0
32 0 1 0 0 23 100 100 100 100 100 100 100 100 99 100 100 100 100 100 100 100 100 100 100 100 100 100 100 100 100 48 5 96 100 100 100 100 73 87 6 5 1
59 57 15 16 83 100 100 100 100 100 100 100 100 100 100 100 100 100 100 100 100 100 100 100 100 100 100 100 100 100 68 98 100 100 100 100 100 100 76 6 5 5 1
50 83 60 99 100 100 100 100 100 100 100 100 100 100 100 100 100 100 100 100 100 100 100 100 100 100 100 100 100 100 100 93 100 100 100 100 100 100 41 34 5 5 4
8 66 73 92 100 100 100 100 100 100 100 100 100 100 100 100 100 100 100 100 100 100 100 100 100 100 100 100 100 100 99 100 100 100 100 89 87 31 6 5 5 5 5
75 100 98 100 100 100 100 100 100 100 100 100 100 100 100 100 100 100 100 100 100 100 100 100 100 100 100 100 100 100 100 100 100 100 100 55 28 5 4 3 5 5 5
96 100 100 100 100 100 100 100 100 100 100 100 100 100 100 100 100 100 100 100 100 100 100 100 100 100 100 100 96 100 100 100 100 100 100 95 51 0 1 5 0 0 4
100 100 100 100 100 100 100 100 100 100 100 100 100 100 100 100 100 100 100 100 100 100 100 100 100 100 100 100 100 100 100 100 100 100 5 4 3 5 4 1 0 0 0
100 100 100 100 100 100 100 100 100 100 100 100 100 100 100 100 100 100 100 100 100 100 100 100 100 100 100 100 100 100 100 100 100 90 24 0 0 0 0 0 0 4 5
100 100 100 100 100 100 100 100 100 100 100 100 100 100 100 100 100 100 100 100 100 100 100 98 100 100 100 100 100 100 100 94 60 4 2 0 0 0 0 0 0 5 5
100 100 100 100 100 100 100 100 100 100 100 100 100 100 100 100 100 100 100 100 100 100 100 100 100 100 100 100 83 36 6 80 3 3 5 0 0 4 4 0 0 5 5
100 100 100 100 100 100 100 100 100 100 100 100 100 100 100 100 100 100 100 100 100 100 100 100 100 60 22 99 100 100 1 4 5 1 0 0 1 5 4 0 0 5 5
100 100 100 100 100 100 100 100 100 100 100 100 100 100 100 100 100 100 100 100 100 100 100 100 96 42 100 100 85 11 5 4 1 0 0 0 5 5 5 0 2 5 66
100 100 100 100 100 100 100 100 100 100 100 100 100 100 100 100 100 100 100 100 100 100 100 100 100 100 84 18 6 3 2 1 1 0 0 3 5 5 5 0 3 5 15
100 100 100 100 100 100 100 100 100 100 100 100 100 100 100 100 100 100 100 100 100 100 100 100 90 64 12 5 5 2 0 0 0 0 0 4 5 5 5 5 5 5 7
100 100 100 100 100 100 100 100 100 100 100 100 100 100 100 100 100 100 100 100 100 100 64 7 11 5 2 4 0 0 0 0 0 2 0 5 5 5 5 5 5 5 5
100 100 100 100 100 100 100 100 100 100 100 100 100 100 100 100 100 100 100 100 99 73 68 5 5 5 4 0 0 0 0 0 0 5 0 1 5 3 5 5 5 5 5
100 100 100 100 100 100 100 100 100 100 100 100 100 100 100 100 100 100 59 11 5 5 3 3 2 0 0 0 0 0 0 3 5 5 0 0 3 0 5 5 5 5 5
100 100 100 100 100 99 100 100 100 100 100 100 95 100 97 78 33 5 5 5 5 4 0 0 0 0 0 0 0 0 1 3 0 0 0 0 0 0 0 0 4 5 5
100 100 100 98 92 72 64 46 10 12 10 5 22 22 5 5 4 2 4 1 0 0 0 0 0 0 0 0 0 0 3 5 1 3 0 0 0 0 1 4 5 5 5
100 100 84 40 82 96 100 100 100 100 68 59 9 5 5 5 4 1 0 2 3 5 0 0 0 0 0 0 0 3 5 5 2 5 0 0 0 0 5 5 5 5 5